Simultaneous Nadir Overpasses (SNOs) Predictions

Prediction of SNOs between TERRA and METOP-C Satellite Orbit:

Table of predicted SNOs for the next 14.0 days since TLE Epoch: 11/4/2022
Index Date (TERRA) Time (TERRA) Lat,Lon (TERRA) SZA (TERRA ) Date (METOP-C) Time (METOP-C) Lat,Lon (METOP-C) SZA (METOP-C ) Distance(km) Time Diff (sec)
1 11/04/2022 21:11:35 81.03,-100.41 98.75 11/04/2022 21:11:19 81.03,-100.29 98.75 2.14 16
2 11/04/2022 22:00:58 -81.04, 67.44 81.22 11/04/2022 22:02:00 -81.04, 67.46 81.19 0.36 62
3 11/07/2022 13:23:20 81.01, 16.39 99.50 11/07/2022 13:23:00 81.00, 16.25 99.47 2.59 20
4 11/07/2022 14:12:42 -81.05,-175.36 80.40 11/07/2022 14:13:39 -81.05,-175.26 80.37 1.68 57
5 11/10/2022 05:35:05 81.00, 133.34 100.24 11/10/2022 05:34:40 81.01, 133.45 100.25 2.04 25
6 11/10/2022 06:24:28 -81.02, -58.72 79.71 11/10/2022 06:25:21 -81.03, -58.80 79.69 1.36 53
7 11/12/2022 21:46:49 81.01,-109.56 100.97 11/12/2022 21:46:20 81.01,-109.40 100.98 2.67 29
8 11/12/2022 22:36:12 -81.03, 58.42 78.97 11/12/2022 22:37:01 -81.03, 58.33 78.96 1.45 49
9 11/15/2022 13:58:33 80.99, 7.35 101.63 11/15/2022 13:58:01 80.99, 7.31 101.61 0.67 32
10 11/15/2022 14:47:56 -81.02, 175.35 78.31 11/15/2022 14:48:41 -81.03, 175.39 78.28 1.02 45
11 11/18/2022 06:10:15 80.99, 124.40 102.27 11/18/2022 06:09:40 80.99, 124.32 102.24 1.36 35



Historial Predications of SNOs between TERRA and METOP-C
